Terug naar catalogus

HEBI-3

ActiefWetenschapSSO
NORAD 56156·PAYLOAD·🇨🇳 China
Deze satellietnaam is nog niet bevestigd door officiële bronnen.

Gelanceerd Mar 30, 2023 vanaf Taiyuan Satellite Launch Center

Loading…

Volgende Passages (komende 24 uur)

TLE

VersSource: Space-Track

Epoch: Sep 14, 2026, 08:41 UTC

1 56156U 23047D   26257.36187674  .00002278  00000-0  12796-3 0  9990
2 56156  97.5017  83.2196 0001958 118.8658 241.2770 15.14318422191299

Volg HEBI-3 in realtime met AllMySat

Download on the App Store